STARLINK-37031

Last updated on Sun Apr 12 2026 00:02:06 GMT+0000 (Coordinated Universal Time)

1 68172U 26050F 26101.50002315 -.01879132 00000+0 -18282-1 0 9997 2 68172 53.1594 117.4936 0000840 77.2732 240.7465 15.68590848 5719
UTC large
Height (km)
Speed (km/s)
/
Latitude / Longitude
Inclination (degrees)
Orbital Period (minutes)
Azimuth
Elevation
Range (km)
Doppler Factor

Next 0 passes for location: London (51.5072 / 0.1276)

Sorry there are no passes over London.
STARLINK-37031